Погода в Ичхоне

Южная Корея     37°16′51″N   127°26′49″E
темп.,
°C
ветер,
м/с
пор.,
м/с
влажн.,
%
обл.,
%
осадки,
мм/ч
давл.,
гПа
погр.,
м
10 мая, пн
пн1000:00+10ююз115498 0.0 101210
03:00+9ю1161100 0.0 101311
06:00+10з1160100 0.0 101417
09:00+9юв1189100 3.3 1016109
12:00+9с2592100 5.1 1016325
15:00+9св3588100 11.4 1014373
18:00+11в2379100 0.1 1014431
21:00+8вюв119169 0.1 101511
11 мая, вт
вт1100:00+7в1192100 0.0 101513
03:00+6всв229111 0.0 101513
06:00+6всв22858 0.0 101618
09:00+14в245736 0.0 1015330
12:00+22вюв46325 0.0 10141134
15:00+24юв56304 0.0 10131683
18:00+20юв611435 0.0 1013374
21:00+13вюв23535 0.0 101543
12 мая, ср
ср1200:00+10всв116297 0.0 101514
03:00+9всв226694 0.0 101514
06:00+9св226759 0.0 101538
09:00+16всв354471 0.0 1015381
12:00+22юв454096 0.0 10131019
15:00+25ю3344100 0.0 10111317
18:00+24ююз1155100 0.0 1010104
21:00+19вюв1162100 0.0 101211
13 мая, чт
чт1300:00+16юв117450 0.0 101211
03:00+14св11810 0.0 101211
06:00+14всв11820 0.0 101314
09:00+20св23620 0.0 1013372
12:00+26в12460 0.0 10121106
15:00+29зюз12392 0.0 10101695
18:00+27юз12514 0.0 1010165
21:00+23ююв336568 0.0 101264
14 мая, пт
пт1400:00+18вюв11780 0.0 101312
03:00+16вюв11830 0.0 101213
06:00+15в11850 0.0 101315
09:00+21в23630 0.0 1013463
12:00+27ююв34463 0.0 10101201
15:00+29ю554138 0.0 10081738
18:00+26юв3656100 0.0 1007292
21:00+21ююз2275100 0.0 100830